| time (UTC) | temp F | wind direction | speed knots | gust knots | rain 1hr in | rain 24hr in | rain mn in | humidity % | barometer mb |
| 20260505112039 | 47 | 62 | 0.0 | 0.0 | 0.00 | 0.00 | 0.00 | 95 | 1013.0 |
| 20260505111538 | 47 | 62 | 0.0 | 0.0 | 0.00 | 0.00 | 0.00 | 95 | 1012.9 |
| 20260505111034 | 46 | 62 | 0.0 | 0.0 | 0.00 | 0.00 | 0.00 | 96 | 1013.2 |
| 20260505110531 | 46 | 62 | 0.0 | 0.0 | 0.00 | 0.00 | 0.00 | 95 | 1012.9 |
| 20260505102003 | 46 | 62 | 0.0 | 0.0 | 0.00 | 0.00 | 0.00 | 95 | 1012.9 |
| 20260505101501 | 46 | 62 | 0.0 | 0.0 | 0.00 | 0.00 | 0.00 | 95 | 1013.1 |
| 20260505100957 | 46 | 62 | 0.0 | 0.0 | 0.00 | 0.00 | 0.00 | 95 | 1013.1 |
| 20260505100455 | 46 | 62 | 0.0 | 0.0 | 0.00 | 0.00 | 0.00 | 95 | 1013.0 |
| 20260505095951 | 46 | 62 | 0.0 | 0.0 | 0.00 | 0.00 | 0.00 | 95 | 1013.1 |
| 20260505095448 | 46 | 62 | 0.0 | 0.0 | 0.00 | 0.00 | 0.00 | 94 | 1013.1 |
| 20260505094944 | 47 | 62 | 0.0 | 0.0 | 0.00 | 0.00 | 0.00 | 94 | 1013.1 |
| 20260505094441 | 47 | 62 | 0.0 | 0.0 | 0.00 | 0.00 | 0.00 | 95 | 1012.8 |
| 20260505093937 | 47 | 62 | 0.0 | 0.0 | 0.00 | 0.00 | 0.00 | 95 | 1012.9 |
| 20260505093434 | 47 | 62 | 0.0 | 0.0 | 0.00 | 0.00 | 0.00 | 95 | 1012.7 |
| 20260505092931 | 47 | 62 | 0.0 | 0.0 | 0.00 | 0.00 | 0.00 | 95 | 1012.8 |
| 20260505092429 | 47 | 62 | 0.0 | 0.0 | 0.00 | 0.00 | 0.00 | 95 | 1013.0 |
| 20260505091926 | 47 | 62 | 0.0 | 0.0 | 0.00 | 0.00 | 0.00 | 94 | 1013.0 |
| 20260505091423 | 47 | 62 | 0.0 | 0.0 | 0.00 | 0.00 | 0.00 | 94 | 1012.8 |
| 20260505090921 | 47 | 62 | 0.0 | 0.0 | 0.00 | 0.00 | 0.00 | 94 | 1012.9 |
| 20260505090419 | 47 | 62 | 0.0 | 0.0 | 0.00 | 0.00 | 0.00 | 94 | 1012.9 |
| 20260505085916 | 47 | 62 | 0.0 | 0.0 | 0.00 | 0.00 | 0.00 | 93 | 1012.8 |
| 20260505085414 | 48 | 62 | 0.0 | 0.0 | 0.00 | 0.00 | 0.00 | 93 | 1013.1 |
| 20260505084912 | 48 | 62 | 0.0 | 0.0 | 0.00 | 0.00 | 0.00 | 93 | 1013.0 |
| 20260505084410 | 48 | 62 | 0.0 | 0.0 | 0.00 | 0.00 | 0.00 | 93 | 1013.1 |
| 20260505083908 | 48 | 62 | 0.0 | 0.0 | 0.00 | 0.00 | 0.00 | 93 | 1012.9 |
| 20260505083405 | 48 | 62 | 0.0 | 0.0 | 0.00 | 0.00 | 0.00 | 93 | 1013.1 |
| 20260505082901 | 48 | 62 | 0.0 | 0.0 | 0.00 | 0.00 | 0.00 | 92 | 1012.8 |
| 20260505082357 | 48 | 62 | 0.0 | 0.0 | 0.00 | 0.00 | 0.00 | 92 | 1012.7 |
| 20260505081854 | 48 | 62 | 0.0 | 0.0 | 0.00 | 0.00 | 0.00 | 92 | 1012.9 |
| 20260505081350 | 48 | 62 | 0.0 | 0.0 | 0.00 | 0.00 | 0.00 | 92 | 1012.9 |
| 20260505080847 | 48 | 62 | 0.0 | 0.0 | 0.00 | 0.00 | 0.00 | 91 | 1012.9 |
| 20260505080343 | 49 | 62 | 0.0 | 0.0 | 0.00 | 0.00 | 0.00 | 91 | 1012.8 |
| 20260505075839 | 49 | 62 | 0.0 | 0.0 | 0.00 | 0.00 | 0.00 | 91 | 1012.7 |
| 20260505075336 | 49 | 62 | 0.0 | 0.0 | 0.00 | 0.00 | 0.00 | 90 | 1012.8 |
| 20260505074833 | 49 | 62 | 0.0 | 0.0 | 0.00 | 0.00 | 0.00 | 90 | 1012.8 |
| 20260505074330 | 50 | 62 | 0.0 | 0.0 | 0.00 | 0.00 | 0.00 | 89 | 1012.8 |
| 20260505073828 | 50 | 62 | 0.0 | 0.0 | 0.00 | 0.00 | 0.00 | 88 | 1012.6 |
| 20260505073326 | 51 | 62 | 0.0 | 0.0 | 0.00 | 0.00 | 0.00 | 87 | 1012.7 |
| 20260505072822 | 51 | 62 | 0.0 | 0.0 | 0.00 | 0.00 | 0.00 | 86 | 1012.7 |
| 20260505072319 | 52 | 62 | 0.0 | 0.0 | 0.00 | 0.00 | 0.00 | 85 | 1012.8 |
| 20260505071814 | 52 | 62 | 0.0 | 0.0 | 0.00 | 0.00 | 0.00 | 86 | 1012.9 |
| 20260505071311 | 51 | 62 | 0.0 | 0.0 | 0.00 | 0.00 | 0.00 | 87 | 1012.7 |
| 20260505070809 | 51 | 62 | 0.0 | 0.0 | 0.00 | 0.00 | 0.00 | 87 | 1013.0 |
| 20260505070305 | 51 | 62 | 0.0 | 0.0 | 0.00 | 0.00 | 0.00 | 86 | 1012.8 |
| 20260505065800 | 52 | 62 | 0.0 | 0.0 | 0.00 | 0.00 | 0.00 | 85 | 1012.9 |
| 20260505065258 | 52 | 62 | 0.0 | 0.0 | 0.00 | 0.00 | 0.00 | 84 | 1013.0 |
| 20260505064755 | 52 | 62 | 0.0 | 0.0 | 0.00 | 0.00 | 0.00 | 84 | 1012.9 |
| 20260505064252 | 52 | 62 | 0.0 | 0.0 | 0.00 | 0.00 | 0.00 | 85 | 1012.9 |
| 20260505063750 | 53 | 62 | 0.0 | 0.0 | 0.00 | 0.00 | 0.00 | 83 | 1013.0 |
| 20260505063246 | 53 | 62 | 0.0 | 0.0 | 0.00 | 0.00 | 0.00 | 83 | 1013.0 |
| 20260505062742 | 53 | 62 | 0.0 | 0.0 | 0.00 | 0.00 | 0.00 | 83 | 1013.1 |
| 20260505062240 | 53 | 62 | 0.0 | 0.0 | 0.00 | 0.00 | 0.00 | 84 | 1013.0 |
| 20260505061737 | 53 | 62 | 0.0 | 0.0 | 0.00 | 0.00 | 0.00 | 84 | 1013.0 |
| 20260505061235 | 53 | 62 | 0.0 | 0.0 | 0.00 | 0.00 | 0.00 | 83 | 1012.9 |
| 20260505060732 | 53 | 63 | 0.0 | 0.0 | 0.00 | 0.00 | 0.00 | 85 | 1013.0 |
| 20260505060229 | 53 | 65 | 0.0 | 0.0 | 0.00 | 0.00 | 0.00 | 85 | 1013.0 |
| 20260505055724 | 53 | 64 | 0.9 | 0.9 | 0.00 | 0.00 | 0.00 | 85 | 1012.9 |
| 20260505055221 | 53 | 62 | 0.0 | 0.0 | 0.00 | 0.00 | 0.00 | 85 | 1012.8 |
| 20260505054718 | 53 | 68 | 0.0 | 0.0 | 0.00 | 0.00 | 0.00 | 84 | 1012.8 |
| 20260505054216 | 53 | 68 | 0.0 | 0.9 | 0.00 | 0.00 | 0.00 | 84 | 1012.9 |
| 20260505053714 | 54 | 68 | 0.0 | 0.0 | 0.00 | 0.00 | 0.00 | 84 | 1012.8 |
| 20260505053210 | 54 | 69 | 0.0 | 0.0 | 0.00 | 0.00 | 0.00 | 83 | 1012.8 |
| 20260505052707 | 54 | 69 | 0.0 | 0.0 | 0.00 | 0.00 | 0.00 | 83 | 1012.9 |
| 20260505052204 | 53 | 69 | 0.0 | 0.0 | 0.00 | 0.00 | 0.00 | 83 | 1012.7 |
| 20260505051701 | 54 | 69 | 0.0 | 0.0 | 0.00 | 0.00 | 0.00 | 84 | 1012.8 |
| 20260505051159 | 54 | 69 | 0.0 | 0.0 | 0.00 | 0.00 | 0.00 | 83 | 1012.8 |
| 20260505050657 | 54 | 69 | 0.0 | 0.0 | 0.00 | 0.00 | 0.00 | 83 | 1012.7 |
| 20260505050155 | 54 | 70 | 0.0 | 0.0 | 0.00 | 0.00 | 0.00 | 83 | 1012.7 |
| 20260505041625 | 54 | 70 | 0.0 | 0.0 | 0.00 | 0.00 | 0.00 | 83 | 1012.7 |
| 20260505041122 | 55 | 70 | 0.0 | 0.0 | 0.00 | 0.00 | 0.00 | 81 | 1012.8 |
| 20260505040619 | 55 | 70 | 0.0 | 0.0 | 0.00 | 0.00 | 0.00 | 81 | 1012.8 |
| 20260505040116 | 55 | 69 | 0.0 | 0.0 | 0.00 | 0.00 | 0.00 | 80 | 1012.9 |
| 20260505035612 | 55 | 70 | 0.0 | 0.0 | 0.00 | 0.00 | 0.00 | 81 | 1012.9 |
| 20260505035109 | 56 | 70 | 0.0 | 0.0 | 0.00 | 0.00 | 0.00 | 80 | 1012.8 |
| 20260505034605 | 56 | 70 | 0.0 | 0.0 | 0.00 | 0.00 | 0.00 | 79 | 1012.8 |
| 20260505034102 | 56 | 73 | 0.0 | 0.0 | 0.00 | 0.00 | 0.00 | 79 | 1012.8 |
| 20260505033559 | 56 | 73 | 0.0 | 0.0 | 0.00 | 0.00 | 0.00 | 78 | 1012.8 |
| 20260505033058 | 57 | 73 | 0.0 | 0.0 | 0.00 | 0.00 | 0.00 | 76 | 1012.9 |
| 20260505032555 | 57 | 73 | 0.0 | 0.0 | 0.00 | 0.00 | 0.00 | 76 | 1012.8 |
| 20260505032051 | 57 | 73 | 0.0 | 0.0 | 0.00 | 0.00 | 0.00 | 76 | 1012.8 |
| 20260505031549 | 57 | 73 | 0.0 | 0.0 | 0.00 | 0.00 | 0.00 | 76 | 1012.7 |
| 20260505031045 | 58 | 73 | 0.0 | 0.0 | 0.00 | 0.00 | 0.00 | 75 | 1012.8 |
| 20260505030542 | 58 | 73 | 0.0 | 0.0 | 0.00 | 0.00 | 0.00 | 74 | 1013.0 |
| 20260505030038 | 59 | 73 | 0.0 | 0.0 | 0.00 | 0.00 | 0.00 | 72 | 1012.8 |
| 20260505025534 | 59 | 73 | 0.0 | 0.0 | 0.00 | 0.00 | 0.00 | 70 | 1013.0 |
| 20260505025033 | 59 | 83 | 0.0 | 0.0 | 0.00 | 0.00 | 0.00 | 70 | 1012.8 |
| 20260505024529 | 59 | 84 | 0.0 | 0.0 | 0.00 | 0.00 | 0.00 | 69 | 1013.0 |
| 20260505024026 | 59 | 84 | 0.0 | 0.0 | 0.00 | 0.00 | 0.00 | 70 | 1013.1 |
| 20260505023523 | 60 | 84 | 0.0 | 0.0 | 0.00 | 0.00 | 0.00 | 69 | 1012.9 |
| 20260505023021 | 60 | 84 | 0.0 | 0.0 | 0.00 | 0.00 | 0.00 | 67 | 1013.0 |
| 20260505022519 | 61 | 84 | 0.0 | 0.0 | 0.00 | 0.00 | 0.00 | 65 | 1012.9 |
| 20260505022016 | 62 | 84 | 0.0 | 0.0 | 0.00 | 0.00 | 0.00 | 64 | 1013.1 |
| 20260505021512 | 62 | 84 | 0.0 | 0.0 | 0.00 | 0.00 | 0.00 | 62 | 1012.8 |
| 20260505021008 | 63 | 84 | 0.0 | 0.0 | 0.00 | 0.00 | 0.00 | 61 | 1012.8 |
| 20260505020503 | 63 | 84 | 0.0 | 0.0 | 0.00 | 0.00 | 0.00 | 59 | 1012.8 |
| 20260505020000 | 63 | 84 | 0.0 | 0.0 | 0.00 | 0.00 | 0.00 | 60 | 1012.8 |
| 20260505015457 | 64 | 84 | 0.0 | 0.0 | 0.00 | 0.00 | 0.00 | 59 | 1012.9 |
| 20260505014954 | 64 | 84 | 0.0 | 0.0 | 0.00 | 0.00 | 0.00 | 59 | 1012.7 |
| 20260505014451 | 64 | 84 | 0.0 | 0.0 | 0.00 | 0.00 | 0.00 | 58 | 1012.7 |
| 20260505013948 | 64 | 84 | 0.0 | 0.0 | 0.00 | 0.00 | 0.00 | 58 | 1012.7 |
| 20260505013445 | 64 | 84 | 0.0 | 0.0 | 0.00 | 0.00 | 0.00 | 57 | 1012.7 |
| 20260505012943 | 65 | 84 | 0.0 | 0.0 | 0.00 | 0.00 | 0.00 | 57 | 1012.7 |
| 20260505012441 | 65 | 84 | 0.0 | 0.0 | 0.00 | 0.00 | 0.00 | 56 | 1012.7 |
| 20260505011937 | 65 | 82 | 0.0 | 0.0 | 0.00 | 0.00 | 0.00 | 57 | 1012.5 |
| 20260505011433 | 66 | 82 | 0.0 | 0.0 | 0.00 | 0.00 | 0.00 | 55 | 1012.4 |
| 20260505010930 | 67 | 81 | 0.0 | 0.0 | 0.00 | 0.00 | 0.00 | 54 | 1012.4 |
| 20260505010426 | 67 | 86 | 0.0 | 0.0 | 0.00 | 0.00 | 0.00 | 54 | 1012.5 |
| 20260505005922 | 67 | 86 | 0.0 | 0.0 | 0.00 | 0.00 | 0.00 | 53 | 1012.6 |
| 20260505005419 | 68 | 84 | 0.0 | 0.0 | 0.00 | 0.00 | 0.00 | 53 | 1012.5 |
| 20260505004916 | 68 | 80 | 0.0 | 0.0 | 0.00 | 0.00 | 0.00 | 52 | 1012.5 |
| 20260505004413 | 69 | 85 | 0.9 | 0.9 | 0.00 | 0.00 | 0.00 | 50 | 1012.3 |
| 20260505003910 | 69 | 80 | 0.0 | 0.0 | 0.00 | 0.00 | 0.00 | 51 | 1012.4 |
| 20260505003407 | 69 | 83 | 0.0 | 0.0 | 0.00 | 0.00 | 0.00 | 51 | 1012.4 |
| 20260505002903 | 69 | 82 | 0.9 | 1.7 | 0.00 | 0.00 | 0.00 | 51 | 1012.1 |
| 20260505002400 | 70 | 80 | 0.0 | 0.0 | 0.00 | 0.00 | 0.00 | 49 | 1012.1 |
| 20260505001858 | 71 | 105 | 0.9 | 0.9 | 0.00 | 0.00 | 0.00 | 49 | 1012.0 |
| 20260505001355 | 71 | 83 | 0.0 | 0.9 | 0.00 | 0.00 | 0.00 | 49 | 1012.0 |
| 20260505000853 | 72 | 80 | 0.9 | 0.9 | 0.00 | 0.00 | 0.00 | 48 | 1012.1 |
| 20260505000351 | 72 | 78 | 0.9 | 0.9 | 0.00 | 0.00 | 0.00 | 46 | 1012.2 |
| 20260504235846 | 72 | 76 | 0.0 | 0.0 | 0.00 | 0.00 | 0.00 | 47 | 1011.8 |
| 20260504235343 | 73 | 79 | 0.0 | 0.0 | 0.00 | 0.00 | 0.00 | 47 | 1012.0 |
| 20260504234840 | 73 | 80 | 0.0 | 0.0 | 0.00 | 0.00 | 0.00 | 47 | 1012.1 |
| 20260504234338 | 73 | 91 | 0.9 | 0.9 | 0.00 | 0.00 | 0.00 | 47 | 1011.9 |
| 20260504233834 | 73 | 94 | 2.6 | 2.6 | 0.00 | 0.00 | 0.00 | 46 | 1012.2 |
| 20260504233330 | 73 | 67 | 0.9 | 0.9 | 0.00 | 0.00 | 0.00 | 47 | 1012.0 |
| 20260504232827 | 73 | 88 | 0.9 | 0.9 | 0.00 | 0.00 | 0.00 | 47 | 1012.0 |
| 20260504232324 | 74 | 91 | 0.0 | 0.9 | 0.00 | 0.00 | 0.00 | 48 | 1012.1 |
| 20260504231821 | 74 | 107 | 0.0 | 0.0 | 0.00 | 0.00 | 0.00 | 48 | 1012.1 |
| 20260504231317 | 74 | 103 | 1.7 | 1.7 | 0.00 | 0.00 | 0.00 | 47 | 1012.0 |
| 20260504230813 | 74 | 122 | 1.7 | 2.6 | 0.00 | 0.00 | 0.00 | 47 | 1012.0 |
| 20260504230311 | 74 | 92 | 0.9 | 0.9 | 0.00 | 0.00 | 0.00 | 46 | 1011.9 |
| 20260504225810 | 75 | 72 | 1.7 | 2.6 | 0.00 | 0.00 | 0.00 | 46 | 1011.9 |
| 20260504225306 | 75 | 70 | 1.7 | 2.6 | 0.00 | 0.00 | 0.00 | 45 | 1012.1 |
| 20260504224803 | 75 | 85 | 0.0 | 0.9 | 0.00 | 0.00 | 0.00 | 46 | 1012.0 |
| 20260504224300 | 76 | 243 | 1.7 | 3.5 | 0.00 | 0.00 | 0.00 | 44 | 1011.9 |
| 20260504223757 | 76 | 94 | 1.7 | 1.7 | 0.00 | 0.00 | 0.00 | 44 | 1011.8 |
| 20260504223252 | 77 | 128 | 1.7 | 1.7 | 0.00 | 0.00 | 0.00 | 43 | 1012.0 |
| 20260504222749 | 76 | 67 | 1.7 | 1.7 | 0.00 | 0.00 | 0.00 | 42 | 1012.1 |
| 20260504222246 | 77 | 122 | 1.7 | 1.7 | 0.00 | 0.00 | 0.00 | 42 | 1012.0 |
| 20260504221744 | 76 | 92 | 0.0 | 0.0 | 0.00 | 0.00 | 0.00 | 42 | 1012.0 |
| 20260504221241 | 77 | 46 | 1.7 | 1.7 | 0.00 | 0.00 | 0.00 | 42 | 1012.3 |
| 20260504220737 | 77 | 70 | 0.9 | 1.7 | 0.00 | 0.00 | 0.00 | 42 | 1012.0 |
| 20260504220235 | 77 | 81 | 0.9 | 0.9 | 0.00 | 0.00 | 0.00 | 42 | 1012.1 |
| 20260504215732 | 78 | 77 | 1.7 | 1.7 | 0.00 | 0.00 | 0.00 | 42 | 1012.1 |
| 20260504215228 | 78 | 132 | 1.7 | 2.6 | 0.00 | 0.00 | 0.00 | 38 | 1012.2 |
| 20260504214724 | 77 | 75 | 1.7 | 1.7 | 0.00 | 0.00 | 0.00 | 42 | 1012.0 |
| 20260504214221 | 77 | 130 | 1.7 | 2.6 | 0.00 | 0.00 | 0.00 | 40 | 1012.1 |
| 20260504213718 | 77 | 90 | 0.0 | 0.0 | 0.00 | 0.00 | 0.00 | 43 | 1012.0 |
| 20260504213214 | 78 | 78 | 0.9 | 0.9 | 0.00 | 0.00 | 0.00 | 40 | 1012.0 |
| 20260504212711 | 77 | 83 | 0.9 | 0.9 | 0.00 | 0.00 | 0.00 | 42 | 1012.0 |
| 20260504212208 | 78 | 100 | 3.5 | 7.0 | 0.00 | 0.00 | 0.00 | 40 | 1012.1 |
| 20260504211705 | 78 | 83 | 0.9 | 1.7 | 0.00 | 0.00 | 0.00 | 44 | 1012.2 |
| 20260504211201 | 78 | 79 | 0.9 | 1.7 | 0.00 | 0.00 | 0.00 | 44 | 1012.1 |
| 20260504210659 | 79 | 80 | 2.6 | 2.6 | 0.00 | 0.00 | 0.00 | 41 | 1012.2 |
| 20260504210155 | 80 | 66 | 0.0 | 0.9 | 0.00 | 0.00 | 0.00 | 41 | 1012.1 |
| 20260504205653 | 79 | 76 | 0.0 | 0.9 | 0.00 | 0.00 | 0.00 | 41 | 1012.2 |
| 20260504205150 | 79 | 107 | 1.7 | 2.6 | 0.00 | 0.00 | 0.00 | 42 | 1012.4 |
| 20260504204648 | 79 | 90 | 1.7 | 1.7 | 0.00 | 0.00 | 0.00 | 43 | 1012.2 |
| 20260504204147 | 78 | 88 | 0.9 | 0.9 | 0.00 | 0.00 | 0.00 | 41 | 1012.3 |
| 20260504203645 | 79 | 67 | 0.0 | 0.0 | 0.00 | 0.00 | 0.00 | 43 | 1012.4 |
| 20260504203143 | 79 | 102 | 1.7 | 2.6 | 0.00 | 0.00 | 0.00 | 43 | 1012.3 |
| 20260504202643 | 79 | 100 | 0.9 | 0.9 | 0.00 | 0.00 | 0.00 | 43 | 1012.4 |
| 20260504202140 | 79 | 120 | 1.7 | 2.6 | 0.00 | 0.00 | 0.00 | 40 | 1012.6 |
| 20260504201637 | 79 | 158 | 2.6 | 3.5 | 0.00 | 0.00 | 0.00 | 38 | 1012.6 |
| 20260504201135 | 78 | 71 | 1.7 | 3.5 | 0.00 | 0.00 | 0.00 | 40 | 1012.7 |
| 20260504200631 | 78 | 84 | 1.7 | 2.6 | 0.00 | 0.00 | 0.00 | 46 | 1012.7 |
| 20260504200128 | 80 | 117 | 3.5 | 3.5 | 0.00 | 0.00 | 0.00 | 43 | 1012.6 |
| 20260504195624 | 80 | 112 | 1.7 | 1.7 | 0.00 | 0.00 | 0.00 | 42 | 1012.8 |
| 20260504195120 | 78 | 103 | 0.0 | 0.0 | 0.00 | 0.00 | 0.00 | 46 | 1012.9 |
| 20260504194617 | 78 | 86 | 0.9 | 1.7 | 0.00 | 0.00 | 0.00 | 45 | 1013.0 |
| 20260504194113 | 78 | 188 | 2.6 | 3.5 | 0.00 | 0.00 | 0.00 | 43 | 1013.1 |
| 20260504193609 | 78 | 68 | 0.9 | 1.7 | 0.00 | 0.00 | 0.00 | 44 | 1013.2 |
| 20260504193108 | 77 | 84 | 0.9 | 0.9 | 0.00 | 0.00 | 0.00 | 45 | 1013.1 |
| 20260504192606 | 77 | 162 | 4.3 | 5.2 | 0.00 | 0.00 | 0.00 | 43 | 1013.2 |
| 20260504192104 | 78 | 114 | 3.5 | 3.5 | 0.00 | 0.00 | 0.00 | 46 | 1013.4 |
| 20260504191602 | 78 | 79 | 0.9 | 0.9 | 0.00 | 0.00 | 0.00 | 45 | 1013.5 |
| 20260504191057 | 77 | 249 | 1.7 | 2.6 | 0.00 | 0.00 | 0.00 | 45 | 1013.5 |
| 20260504190554 | 78 | 0 | 0.9 | 1.7 | 0.00 | 0.00 | 0.00 | 42 | 1013.7 |
| 20260504190050 | 78 | 79 | 0.9 | 0.9 | 0.00 | 0.00 | 0.00 | 45 | 1013.7 |
| 20260504185547 | 79 | 87 | 0.9 | 0.9 | 0.00 | 0.00 | 0.00 | 45 | 1013.6 |
| 20260504185044 | 79 | 71 | 0.9 | 0.9 | 0.00 | 0.00 | 0.00 | 44 | 1013.8 |
| 20260504184539 | 78 | 70 | 0.0 | 0.9 | 0.00 | 0.00 | 0.00 | 44 | 1013.6 |
| 20260504184035 | 77 | 77 | 0.9 | 0.9 | 0.00 | 0.00 | 0.00 | 45 | 1013.8 |
| 20260504183532 | 77 | 159 | 2.6 | 3.5 | 0.00 | 0.00 | 0.00 | 44 | 1013.8 |
| 20260504183030 | 78 | 86 | 0.9 | 0.9 | 0.00 | 0.00 | 0.00 | 50 | 1014.0 |
| 20260504182527 | 78 | 65 | 0.9 | 0.9 | 0.00 | 0.00 | 0.00 | 45 | 1014.0 |
| 20260504182024 | 78 | 193 | 0.9 | 1.7 | 0.00 | 0.00 | 0.00 | 44 | 1013.9 |
| 20260504181521 | 78 | 120 | 0.9 | 1.7 | 0.00 | 0.00 | 0.00 | 44 | 1014.1 |
| 20260504181020 | 78 | 240 | 3.5 | 5.2 | 0.00 | 0.00 | 0.00 | 43 | 1014.3 |
| 20260504180518 | 76 | 41 | 0.9 | 1.7 | 0.00 | 0.00 | 0.00 | 45 | 1014.3 |
| 20260504180017 | 77 | 92 | 1.7 | 1.7 | 0.00 | 0.00 | 0.00 | 46 | 1014.5 |
| 20260504175513 | 76 | 90 | 0.9 | 0.9 | 0.00 | 0.00 | 0.00 | 44 | 1014.4 |
| 20260504175010 | 75 | 120 | 1.7 | 3.5 | 0.00 | 0.00 | 0.00 | 46 | 1014.5 |
| 20260504174508 | 76 | 100 | 1.7 | 2.6 | 0.00 | 0.00 | 0.00 | 44 | 1014.6 |
| 20260504174005 | 75 | 46 | 2.6 | 2.6 | 0.00 | 0.00 | 0.00 | 45 | 1014.5 |
| 20260504173501 | 76 | 67 | 3.5 | 5.2 | 0.00 | 0.00 | 0.00 | 46 | 1014.5 |
| 20260504172959 | 75 | 78 | 0.0 | 0.0 | 0.00 | 0.00 | 0.00 | 46 | 1014.8 |
| 20260504172454 | 75 | 86 | 0.9 | 0.9 | 0.00 | 0.00 | 0.00 | 44 | 1014.9 |
| 20260504171951 | 76 | 117 | 1.7 | 2.6 | 0.00 | 0.00 | 0.00 | 50 | 1014.9 |
| 20260504171448 | 74 | 54 | 0.9 | 1.7 | 0.00 | 0.00 | 0.00 | 47 | 1014.9 |
| 20260504170945 | 74 | 165 | 2.6 | 2.6 | 0.00 | 0.00 | 0.00 | 47 | 1015.1 |
| 20260504170441 | 75 | 232 | 4.3 | 6.1 | 0.00 | 0.00 | 0.00 | 45 | 1014.9 |
| 20260504160401 | 73 | 107 | 0.9 | 1.7 | 0.00 | 0.00 | 0.00 | 44 | 1015.9 |
| 20260504150825 | 70 | 81 | 0.9 | 0.9 | 0.00 | 0.00 | 0.00 | 49 | 1016.5 |
| 20260504150322 | 70 | 178 | 2.6 | 3.5 | 0.00 | 0.00 | 0.00 | 46 | 1016.6 |
| 20260504141252 | 66 | 80 | 0.0 | 0.0 | 0.00 | 0.00 | 0.00 | 55 | 1017.2 |
| 20260504140749 | 64 | 74 | 0.0 | 0.9 | 0.00 | 0.00 | 0.00 | 57 | 1017.1 |
| 20260504140244 | 64 | 88 | 0.0 | 0.9 | 0.00 | 0.00 | 0.00 | 56 | 1017.0 |
| 20260504130713 | 57 | 73 | 0.0 | 0.0 | 0.00 | 0.00 | 0.00 | 67 | 1017.4 |
| 20260504130209 | 56 | 70 | 0.0 | 0.0 | 0.00 | 0.00 | 0.00 | 68 | 1017.5 |
| 20260504120133 | 47 | 90 | 0.0 | 0.9 | 0.00 | 0.00 | 0.00 | 89 | 1016.7 |